{"data":{"norad_id":63190,"intl_designator":"2025-048H","name":"STARLINK-11637 [DTC]","alt_names":[],"object_type":"PAYLOAD","status":"ACTIVE","operator":null,"country":"US","launch_date":"2025-03-13","launch_site_code":"AFETR","launch_vehicle":null,"mission":null,"orbit_class":"UNKNOWN","rcs_meters":null,"size_class":null,"mass_kg":null,"dimensions":null,"purposes":["comms"],"wikipedia_slug":null,"has_3d_model":false,"image_url":null,"decayed_at":null,"tle_current":{"epoch":"2026-05-25T05:23:11.509728Z","epoch_age_seconds":59184,"freshness":"FRESH","line1":"1 63190U 25048H   26145.22443877  .00160431  00000+0  12261-2 0  9991","line2":"2 63190  42.9977 218.9680 0001520 303.8826  56.1897 15.70911366 70553","mean_motion":15.70911366,"eccentricity":0.000152,"inclination_deg":42.9977,"raan_deg":218.968,"arg_perigee_deg":303.8826,"mean_anomaly_deg":56.1897,"bstar":0.0012261,"rev_number":7055,"period_min":91.666533909336,"perigee_km":355.26745883645,"apogee_km":357.31472497639,"semimajor_km":6734.4280919064,"source":"CELESTRAK","updated_at":"2026-05-25T13:38:19.920183Z"}}}